User: anonymous   Login
Location: Dompnac
(44.5644°N, 4.1026°E)
Time: 23:59:58
(UTC+00:00)
Language:

MetOp-A - Orbit

View from above orbital plane
View from above orbital plane
View from above satellite
View from above satellite

Ground track
Ground track

The orbit data is extracted from the following two-line orbital elements,

1 29499U 06044A   20332.75377355  .00000035  00000-0  35304-4 0  9996
2 29499  98.5019  13.7736 0001493 115.2275  29.9801 14.21496587732080
Epoch (UTC): 27 November 2020 18:05:26
Eccentricity: 0.0001493
inclination: 98.5019°
perigee height: 819 km
apogee height: 821 km
right ascension of ascending node: 13.7736°
argument of perigee: 115.2275°
revolutions per day: 14.21496587
mean anomaly at epoch: 29.9801°
orbit number at epoch: 73208

The dashed part of the orbit path shows where the satellite is in the earth's shadow,  

DLR